Location: Ahstedt
(52.2048°N, 10.1060°E)
Time: 22:26:36
(UTC+00:00)

YAOGAN 1 - Pass Details

Date: 18 January 2026
Orbit: 605 x 607 km, 97.8° (Epoch: 7 February)

Event Time Altitude Azimuth Distance (km) Brightness Sun altitude
Rises 06:08:57 0° 20° (NNE) 2,876 6.0 -10.4°
Reaches altitude 10° 06:11:18 10° 30° (NNE) 1,966 5.3 -10.0°
Maximum altitude 06:15:13 35° 96° (E) 997 4.4 -9.5°
Drops below altitude 10° 06:19:06 10° 163° (SSE) 1,950 5.7 -8.9°
Sets 06:21:25 0° 172° (S) 2,849 6.4 -8.6°
